| time (UTC) | temp F | wind direction | speed knots | gust knots | rain 1hr in | rain 24hr in | rain mn in | humidity % | barometer mb |
| 20260906203204 | 68 | 104 | 0.0 | 3.5 | 0.00 | 0.00 | 0.00 | 63 | 1015.0 |
| 20260906202704 | 68 | 104 | 0.0 | 4.3 | 0.00 | 0.00 | 0.00 | 63 | 1015.1 |
| 20260906201704 | 68 | 104 | 0.0 | 3.5 | 0.00 | 0.00 | 0.00 | 63 | 1015.2 |
| 20260906201204 | 68 | 107 | 0.0 | 3.5 | 0.00 | 0.00 | 0.00 | 64 | 1015.1 |
| 20260906200704 | 68 | 109 | 0.9 | 3.5 | 0.00 | 0.00 | 0.00 | 64 | 1015.1 |
| 20260906200204 | 68 | 109 | 0.9 | 3.5 | 0.00 | 0.00 | 0.00 | 64 | 1015.1 |
| 20260906195704 | 68 | 109 | 0.9 | 2.6 | 0.00 | 0.00 | 0.00 | 63 | 1015.1 |
| 20260906194704 | 69 | 109 | 0.9 | 3.5 | 0.00 | 0.00 | 0.00 | 63 | 1015.0 |
| 20260906194204 | 69 | 109 | 0.0 | 3.5 | 0.00 | 0.00 | 0.00 | 62 | 1015.2 |
| 20260906193704 | 69 | 110 | 0.9 | 3.5 | 0.00 | 0.00 | 0.00 | 62 | 1015.2 |
| 20260906193204 | 69 | 110 | 1.7 | 3.5 | 0.00 | 0.00 | 0.00 | 62 | 1015.4 |
| 20260906192704 | 69 | 110 | 0.9 | 3.5 | 0.00 | 0.00 | 0.00 | 62 | 1015.3 |
| 20260906192205 | 69 | 110 | 0.9 | 3.5 | 0.00 | 0.00 | 0.00 | 62 | 1015.4 |
| 20260906191705 | 70 | 113 | 1.7 | 2.6 | 0.00 | 0.00 | 0.00 | 62 | 1015.4 |
| 20260906191204 | 70 | 117 | 0.0 | 2.6 | 0.00 | 0.00 | 0.00 | 61 | 1015.5 |
| 20260906190704 | 70 | 117 | 0.0 | 2.6 | 0.00 | 0.00 | 0.00 | 61 | 1015.5 |
| 20260906190205 | 70 | 117 | 0.9 | 3.5 | 0.00 | 0.00 | 0.00 | 61 | 1015.5 |
| 20260906185205 | 70 | 117 | 0.0 | 3.5 | 0.00 | 0.00 | 0.00 | 60 | 1015.6 |
| 20260906184703 | 71 | 117 | 0.9 | 2.6 | 0.00 | 0.00 | 0.00 | 59 | 1015.6 |
| 20260906184204 | 71 | 118 | 0.9 | 3.5 | 0.00 | 0.00 | 0.00 | 59 | 1015.5 |
| 20260906183704 | 71 | 118 | 0.0 | 3.5 | 0.00 | 0.00 | 0.00 | 58 | 1015.6 |
| 20260906183205 | 71 | 118 | 0.9 | 3.5 | 0.00 | 0.00 | 0.00 | 58 | 1015.5 |
| 20260906182203 | 71 | 125 | 0.0 | 4.3 | 0.00 | 0.00 | 0.00 | 57 | 1015.5 |
| 20260906181704 | 71 | 127 | 1.7 | 4.3 | 0.00 | 0.00 | 0.00 | 57 | 1015.6 |
| 20260906181204 | 72 | 144 | 1.7 | 4.3 | 0.00 | 0.00 | 0.00 | 56 | 1015.6 |
| 20260906180704 | 72 | 117 | 0.9 | 5.2 | 0.00 | 0.00 | 0.00 | 56 | 1015.6 |
| 20260906175704 | 72 | 109 | 0.9 | 5.2 | 0.00 | 0.00 | 0.00 | 56 | 1015.7 |
| 20260906175204 | 72 | 100 | 1.7 | 5.2 | 0.00 | 0.00 | 0.00 | 55 | 1015.7 |
| 20260906174704 | 72 | 100 | 0.9 | 5.2 | 0.00 | 0.00 | 0.00 | 55 | 1015.8 |
| 20260906174204 | 72 | 154 | 0.0 | 3.5 | 0.00 | 0.00 | 0.00 | 54 | 1015.9 |
| 20260906173704 | 72 | 97 | 0.0 | 4.3 | 0.00 | 0.00 | 0.00 | 54 | 1016.0 |
| 20260906173214 | 72 | 176 | 0.9 | 7.8 | 0.00 | 0.00 | 0.00 | 54 | 1016.1 |
| 20260906172704 | 73 | 118 | 0.9 | 7.8 | 0.00 | 0.00 | 0.00 | 53 | 1016.1 |
| 20260906171704 | 73 | 199 | 1.7 | 7.8 | 0.00 | 0.00 | 0.00 | 52 | 1016.3 |
| 20260906171204 | 73 | 154 | 0.9 | 7.8 | 0.00 | 0.00 | 0.00 | 52 | 1016.3 |
| 20260906170704 | 73 | 125 | 0.9 | 7.8 | 0.00 | 0.00 | 0.00 | 52 | 1016.4 |
| 20260906170204 | 73 | 116 | 0.9 | 6.1 | 0.00 | 0.00 | 0.00 | 51 | 1016.5 |
| 20260906165704 | 73 | 138 | 1.7 | 5.2 | 0.00 | 0.00 | 0.00 | 51 | 1016.4 |
| 20260906165204 | 74 | 178 | 0.9 | 10.4 | 0.00 | 0.00 | 0.00 | 50 | 1016.4 |
| 20260906164704 | 74 | 102 | 1.7 | 10.4 | 0.00 | 0.00 | 0.00 | 49 | 1016.4 |
| 20260906164205 | 74 | 179 | 2.6 | 10.4 | 0.00 | 0.00 | 0.00 | 49 | 1016.5 |
| 20260906163704 | 74 | 197 | 0.9 | 6.1 | 0.00 | 0.00 | 0.00 | 49 | 1016.5 |
| 20260906162714 | 75 | 85 | 2.6 | 6.1 | 0.00 | 0.00 | 0.00 | 48 | 1016.5 |
| 20260906162204 | 75 | 72 | 1.7 | 8.7 | 0.00 | 0.00 | 0.00 | 48 | 1016.6 |
| 20260906161706 | 76 | 200 | 2.6 | 8.7 | 0.00 | 0.00 | 0.00 | 47 | 1016.4 |
| 20260906161207 | 76 | 140 | 1.7 | 8.7 | 0.00 | 0.00 | 0.00 | 46 | 1016.6 |
| 20260906160204 | 77 | 135 | 1.7 | 9.6 | 0.00 | 0.00 | 0.00 | 45 | 1016.5 |
| 20260906155704 | 77 | 123 | 1.7 | 9.6 | 0.00 | 0.00 | 0.00 | 43 | 1016.5 |
| 20260906154704 | 78 | 85 | 2.6 | 8.7 | 0.00 | 0.00 | 0.00 | 41 | 1016.5 |
| 20260906154204 | 79 | 93 | 3.5 | 8.7 | 0.00 | 0.00 | 0.00 | 40 | 1016.5 |
| 20260906153233 | 79 | 134 | 2.6 | 5.2 | 0.00 | 0.00 | 0.00 | 39 | 1016.5 |
| 20260906152704 | 79 | 175 | 1.7 | 5.2 | 0.00 | 0.00 | 0.00 | 40 | 1016.5 |
| 20260906152204 | 78 | 214 | 0.9 | 5.2 | 0.00 | 0.00 | 0.00 | 42 | 1016.5 |
| 20260906151705 | 78 | 89 | 1.7 | 6.1 | 0.00 | 0.00 | 0.00 | 43 | 1016.6 |
| 20260906151207 | 78 | 158 | 0.9 | 6.1 | 0.00 | 0.00 | 0.00 | 42 | 1016.7 |
| 20260906150703 | 78 | 145 | 1.7 | 7.8 | 0.00 | 0.00 | 0.00 | 42 | 1016.6 |
| 20260906150204 | 78 | 145 | 1.7 | 8.7 | 0.00 | 0.00 | 0.00 | 42 | 1016.7 |
| 20260906145704 | 78 | 89 | 1.7 | 8.7 | 0.00 | 0.00 | 0.00 | 41 | 1016.7 |
| 20260906145204 | 78 | 183 | 2.6 | 8.7 | 0.00 | 0.00 | 0.00 | 40 | 1016.8 |
| 20260906144704 | 79 | 90 | 3.5 | 7.8 | 0.00 | 0.00 | 0.00 | 39 | 1017.0 |
| 20260906144204 | 79 | 185 | 1.7 | 7.8 | 0.00 | 0.00 | 0.00 | 39 | 1017.0 |
| 20260906143704 | 79 | 82 | 2.6 | 7.8 | 0.00 | 0.00 | 0.00 | 39 | 1017.0 |
| 20260906143204 | 80 | 178 | 2.6 | 8.7 | 0.00 | 0.00 | 0.00 | 39 | 1017.1 |
| 20260906142704 | 80 | 107 | 1.7 | 8.7 | 0.00 | 0.00 | 0.00 | 39 | 1017.1 |
| 20260906142204 | 80 | 157 | 2.6 | 8.7 | 0.00 | 0.00 | 0.00 | 39 | 1017.2 |
| 20260906141204 | 80 | 216 | 1.7 | 7.8 | 0.00 | 0.00 | 0.00 | 39 | 1017.2 |
| 20260906140204 | 81 | 206 | 1.7 | 6.1 | 0.00 | 0.00 | 0.00 | 39 | 1017.2 |
| 20260906135705 | 81 | 90 | 1.7 | 7.8 | 0.00 | 0.00 | 0.00 | 38 | 1017.2 |
| 20260906134704 | 81 | 99 | 2.6 | 6.1 | 0.00 | 0.00 | 0.00 | 37 | 1017.4 |
| 20260906134204 | 82 | 75 | 2.6 | 6.1 | 0.00 | 0.00 | 0.00 | 38 | 1017.5 |
| 20260906133705 | 81 | 182 | 2.6 | 7.8 | 0.00 | 0.00 | 0.00 | 38 | 1017.5 |
| 20260906133204 | 81 | 186 | 2.6 | 7.8 | 0.00 | 0.00 | 0.00 | 38 | 1017.7 |
| 20260906132205 | 80 | 195 | 3.5 | 7.8 | 0.00 | 0.00 | 0.00 | 38 | 1017.8 |
| 20260906131704 | 80 | 121 | 2.6 | 7.8 | 0.00 | 0.00 | 0.00 | 38 | 1018.0 |
| 20260906131204 | 80 | 114 | 2.6 | 7.8 | 0.00 | 0.00 | 0.00 | 38 | 1017.8 |
| 20260906130705 | 80 | 152 | 2.6 | 8.7 | 0.00 | 0.00 | 0.00 | 39 | 1017.9 |
| 20260906130204 | 79 | 173 | 2.6 | 8.7 | 0.00 | 0.00 | 0.00 | 41 | 1017.9 |
| 20260906125705 | 79 | 175 | 1.7 | 8.7 | 0.00 | 0.00 | 0.00 | 41 | 1017.9 |
| 20260906125204 | 79 | 200 | 3.5 | 7.8 | 0.00 | 0.00 | 0.00 | 41 | 1018.0 |
| 20260906124704 | 80 | 202 | 2.6 | 7.8 | 0.00 | 0.00 | 0.00 | 41 | 1018.0 |
| 20260906124204 | 80 | 251 | 0.9 | 7.8 | 0.00 | 0.00 | 0.00 | 41 | 1018.1 |
| 20260906123204 | 80 | 207 | 1.7 | 11.3 | 0.00 | 0.00 | 0.00 | 41 | 1018.2 |
| 20260906122704 | 80 | 221 | 1.7 | 11.3 | 0.00 | 0.00 | 0.00 | 41 | 1018.2 |
| 20260906122204 | 80 | 86 | 2.6 | 11.3 | 0.00 | 0.00 | 0.00 | 40 | 1018.2 |
| 20260906121205 | 80 | 149 | 2.6 | 11.3 | 0.00 | 0.00 | 0.00 | 40 | 1018.3 |
| 20260906120704 | 80 | 114 | 2.6 | 5.2 | 0.00 | 0.00 | 0.00 | 40 | 1018.4 |
| 20260906120204 | 80 | 179 | 1.7 | 5.2 | 0.00 | 0.00 | 0.00 | 40 | 1018.4 |
| 20260906115704 | 79 | 183 | 0.9 | 6.1 | 0.00 | 0.00 | 0.00 | 42 | 1018.6 |
| 20260906115205 | 79 | 171 | 1.7 | 6.1 | 0.00 | 0.00 | 0.00 | 44 | 1018.7 |
| 20260906114704 | 78 | 176 | 0.9 | 6.1 | 0.00 | 0.00 | 0.00 | 45 | 1018.6 |
| 20260906114204 | 78 | 93 | 2.6 | 6.1 | 0.00 | 0.00 | 0.00 | 45 | 1018.8 |
| 20260906113704 | 78 | 171 | 1.7 | 5.2 | 0.00 | 0.00 | 0.00 | 44 | 1018.8 |
| 20260906112704 | 78 | 199 | 1.7 | 8.7 | 0.00 | 0.00 | 0.00 | 45 | 1018.8 |
| 20260906112204 | 78 | 107 | 2.6 | 8.7 | 0.00 | 0.00 | 0.00 | 45 | 1018.7 |
| 20260906111705 | 77 | 164 | 2.6 | 8.7 | 0.00 | 0.00 | 0.00 | 46 | 1018.9 |
| 20260906111204 | 77 | 175 | 1.7 | 8.7 | 0.00 | 0.00 | 0.00 | 48 | 1018.9 |
| 20260906110704 | 77 | 247 | 1.7 | 11.3 | 0.00 | 0.00 | 0.00 | 50 | 1019.0 |
| 20260906110204 | 76 | 69 | 2.6 | 11.3 | 0.00 | 0.00 | 0.00 | 50 | 1019.2 |
| 20260906105704 | 76 | 130 | 1.7 | 11.3 | 0.00 | 0.00 | 0.00 | 51 | 1019.2 |
| 20260906104704 | 76 | 56 | 2.6 | 11.3 | 0.00 | 0.00 | 0.00 | 52 | 1019.2 |
| 20260906104205 | 75 | 128 | 1.7 | 11.3 | 0.00 | 0.00 | 0.00 | 53 | 1019.2 |
| 20260906103204 | 75 | 303 | 2.6 | 9.6 | 0.00 | 0.00 | 0.00 | 54 | 1019.3 |
| 20260906102704 | 74 | 185 | 2.6 | 9.6 | 0.00 | 0.00 | 0.00 | 54 | 1019.3 |
| 20260906102204 | 74 | 90 | 2.6 | 9.6 | 0.00 | 0.00 | 0.00 | 54 | 1019.4 |
| 20260906101204 | 75 | 76 | 2.6 | 5.2 | 0.00 | 0.00 | 0.00 | 55 | 1019.4 |
| 20260906100704 | 74 | 180 | 0.9 | 5.2 | 0.00 | 0.00 | 0.00 | 57 | 1019.4 |
| 20260906100204 | 74 | 117 | 1.7 | 7.8 | 0.00 | 0.00 | 0.00 | 57 | 1019.5 |
| 20260906095704 | 73 | 228 | 1.7 | 7.8 | 0.00 | 0.00 | 0.00 | 57 | 1019.5 |
| 20260906095203 | 73 | 203 | 1.7 | 7.8 | 0.00 | 0.00 | 0.00 | 59 | 1019.6 |
| 20260906094204 | 72 | 121 | 0.9 | 7.8 | 0.00 | 0.00 | 0.00 | 62 | 1019.8 |
| 20260906093704 | 71 | 89 | 1.7 | 7.8 | 0.00 | 0.00 | 0.00 | 63 | 1019.7 |
| 20260906092704 | 70 | 97 | 2.6 | 5.2 | 0.00 | 0.00 | 0.00 | 64 | 1019.9 |
| 20260906091705 | 70 | 104 | 1.7 | 7.8 | 0.00 | 0.00 | 0.00 | 66 | 1019.9 |
| 20260906091204 | 69 | 113 | 1.7 | 7.8 | 0.00 | 0.00 | 0.00 | 67 | 1019.9 |
| 20260906090705 | 69 | 71 | 1.7 | 7.8 | 0.00 | 0.00 | 0.00 | 67 | 1019.9 |
| 20260906085204 | 68 | 94 | 1.7 | 5.2 | 0.00 | 0.00 | 0.00 | 72 | 1020.0 |
| 20260906084704 | 67 | 97 | 0.9 | 5.2 | 0.00 | 0.00 | 0.00 | 73 | 1020.1 |
| 20260906084204 | 67 | 83 | 2.6 | 4.3 | 0.00 | 0.00 | 0.00 | 72 | 1020.1 |
| 20260906083704 | 67 | 140 | 1.7 | 4.3 | 0.00 | 0.00 | 0.00 | 72 | 1020.1 |
| 20260906083205 | 67 | 149 | 0.9 | 3.5 | 0.00 | 0.00 | 0.00 | 73 | 1020.2 |
| 20260906082704 | 66 | 128 | 1.7 | 5.2 | 0.00 | 0.00 | 0.00 | 75 | 1020.4 |
| 20260906081704 | 66 | 102 | 1.7 | 5.2 | 0.00 | 0.00 | 0.00 | 75 | 1020.4 |
| 20260906081204 | 66 | 99 | 0.9 | 5.2 | 0.00 | 0.00 | 0.00 | 75 | 1020.4 |
| 20260906080709 | 66 | 100 | 0.0 | 5.2 | 0.00 | 0.00 | 0.00 | 76 | 1020.4 |
| 20260906075704 | 65 | 137 | 1.7 | 4.3 | 0.00 | 0.00 | 0.00 | 76 | 1020.3 |
| 20260906075206 | 65 | 116 | 0.9 | 4.3 | 0.00 | 0.00 | 0.00 | 76 | 1020.3 |
| 20260906074705 | 64 | 111 | 0.9 | 4.3 | 0.00 | 0.00 | 0.00 | 77 | 1020.4 |
| 20260906073704 | 63 | 106 | 1.7 | 2.6 | 0.00 | 0.00 | 0.00 | 77 | 1020.4 |
| 20260906073204 | 62 | 158 | 0.9 | 2.6 | 0.00 | 0.00 | 0.00 | 77 | 1020.5 |
| 20260906072704 | 62 | 159 | 0.0 | 2.6 | 0.00 | 0.00 | 0.00 | 78 | 1020.5 |
| 20260906070208 | 61 | 180 | 0.0 | 1.7 | 0.00 | 0.00 | 0.00 | 78 | 1020.8 |
| 20260906065704 | 60 | 180 | 0.0 | 1.7 | 0.00 | 0.00 | 0.00 | 78 | 1020.9 |
| 20260906064707 | 60 | 180 | 0.0 | 1.7 | 0.00 | 0.00 | 0.00 | 78 | 1020.9 |
| 20260906064204 | 60 | 180 | 0.0 | 1.7 | 0.00 | 0.00 | 0.00 | 78 | 1020.8 |
| 20260906063708 | 60 | 180 | 0.9 | 1.7 | 0.00 | 0.00 | 0.00 | 78 | 1021.0 |
| 20260906063204 | 60 | 180 | 0.0 | 1.7 | 0.00 | 0.00 | 0.00 | 78 | 1021.1 |
| 20260906062203 | 60 | 180 | 0.0 | 1.7 | 0.00 | 0.00 | 0.00 | 78 | 1021.0 |
| 20260906061705 | 60 | 180 | 0.0 | 0.9 | 0.00 | 0.00 | 0.00 | 78 | 1020.8 |
| 20260906061204 | 60 | 180 | 0.0 | 0.9 | 0.00 | 0.00 | 0.00 | 78 | 1020.8 |
| 20260906060704 | 60 | 180 | 0.0 | 0.9 | 0.00 | 0.00 | 0.00 | 78 | 1020.8 |
| 20260906060204 | 60 | 180 | 0.0 | 1.7 | 0.00 | 0.00 | 0.00 | 78 | 1020.8 |
| 20260906055704 | 60 | 180 | 0.0 | 1.7 | 0.00 | 0.00 | 0.00 | 78 | 1020.9 |
| 20260906055204 | 60 | 180 | 0.0 | 2.6 | 0.00 | 0.00 | 0.00 | 78 | 1021.1 |
| 20260906054705 | 60 | 180 | 0.9 | 2.6 | 0.00 | 0.00 | 0.00 | 78 | 1021.1 |
| 20260906054204 | 59 | 180 | 0.9 | 2.6 | 0.00 | 0.00 | 0.00 | 78 | 1021.0 |
| 20260906053704 | 59 | 182 | 0.0 | 1.7 | 0.00 | 0.00 | 0.00 | 78 | 1020.9 |
| 20260906053204 | 59 | 182 | 0.0 | 2.6 | 0.00 | 0.00 | 0.00 | 78 | 1021.0 |
| 20260906052704 | 59 | 182 | 0.0 | 2.6 | 0.00 | 0.00 | 0.00 | 78 | 1021.1 |
| 20260906052203 | 59 | 182 | 0.9 | 2.6 | 0.00 | 0.00 | 0.00 | 78 | 1021.1 |
| 20260906051704 | 59 | 182 | 0.9 | 2.6 | 0.00 | 0.00 | 0.00 | 78 | 1021.2 |
| 20260906051204 | 58 | 185 | 0.9 | 1.7 | 0.00 | 0.00 | 0.00 | 78 | 1021.1 |
| 20260906050704 | 58 | 185 | 0.0 | 1.7 | 0.00 | 0.00 | 0.00 | 78 | 1021.2 |
| 20260906050204 | 58 | 185 | 0.0 | 1.7 | 0.00 | 0.00 | 0.00 | 78 | 1021.1 |
| 20260906045712 | 57 | 185 | 0.0 | 1.7 | 0.00 | 0.00 | 0.00 | 78 | 1021.1 |
| 20260906044204 | 56 | 185 | 0.0 | 0.0 | 0.00 | 0.00 | 0.00 | 78 | 1021.1 |
| 20260906043704 | 56 | 185 | 0.0 | 0.0 | 0.00 | 0.00 | 0.00 | 78 | 1021.0 |
| 20260906042704 | 56 | 185 | 0.0 | 0.0 | 0.00 | 0.00 | 0.00 | 78 | 1021.1 |
| 20260906041203 | 56 | 185 | 0.0 | 0.0 | 0.00 | 0.00 | 0.00 | 78 | 1021.2 |
| 20260906040204 | 56 | 185 | 0.0 | 0.0 | 0.00 | 0.00 | 0.00 | 78 | 1021.2 |
| 20260906035704 | 56 | 185 | 0.0 | 0.0 | 0.00 | 0.00 | 0.00 | 78 | 1021.3 |
| 20260906035204 | 56 | 185 | 0.0 | 0.0 | 0.00 | 0.00 | 0.00 | 78 | 1021.2 |
| 20260906033704 | 57 | 185 | 0.0 | 0.0 | 0.00 | 0.00 | 0.00 | 78 | 1021.2 |
| 20260906033204 | 57 | 185 | 0.0 | 0.0 | 0.00 | 0.00 | 0.00 | 78 | 1021.1 |
| 20260906032704 | 57 | 185 | 0.0 | 0.0 | 0.00 | 0.00 | 0.00 | 78 | 1021.2 |
| 20260906031710 | 57 | 185 | 0.0 | 0.0 | 0.00 | 0.00 | 0.00 | 78 | 1021.3 |
| 20260906031204 | 57 | 185 | 0.0 | 0.0 | 0.00 | 0.00 | 0.00 | 78 | 1021.6 |
| 20260906030704 | 57 | 185 | 0.0 | 0.0 | 0.00 | 0.00 | 0.00 | 78 | 1021.6 |
| 20260906030204 | 57 | 185 | 0.0 | 0.0 | 0.00 | 0.00 | 0.00 | 78 | 1021.6 |
| 20260906025704 | 58 | 185 | 0.0 | 0.0 | 0.00 | 0.00 | 0.00 | 78 | 1021.7 |
| 20260906024203 | 58 | 185 | 0.0 | 0.0 | 0.00 | 0.00 | 0.00 | 77 | 1021.9 |
| 20260906023706 | 58 | 185 | 0.0 | 0.0 | 0.00 | 0.00 | 0.00 | 78 | 1022.1 |
| 20260906023204 | 58 | 185 | 0.0 | 0.0 | 0.00 | 0.00 | 0.00 | 78 | 1022.1 |
| 20260906022204 | 58 | 185 | 0.0 | 0.9 | 0.00 | 0.00 | 0.00 | 78 | 1022.2 |
| 20260906021711 | 58 | 185 | 0.0 | 0.9 | 0.00 | 0.00 | 0.00 | 78 | 1022.2 |
| 20260906021204 | 58 | 185 | 0.0 | 0.9 | 0.00 | 0.00 | 0.00 | 77 | 1022.3 |
| 20260906020704 | 58 | 185 | 0.0 | 0.0 | 0.00 | 0.00 | 0.00 | 77 | 1022.3 |
| 20260906015705 | 58 | 185 | 0.0 | 0.0 | 0.00 | 0.00 | 0.00 | 77 | 1022.3 |
| 20260906015205 | 59 | 185 | 0.0 | 0.9 | 0.00 | 0.00 | 0.00 | 77 | 1022.3 |
| 20260906014704 | 59 | 185 | 0.0 | 0.9 | 0.00 | 0.00 | 0.00 | 77 | 1022.2 |
| 20260906013704 | 59 | 185 | 0.0 | 0.9 | 0.00 | 0.00 | 0.00 | 77 | 1022.4 |
| 20260906013205 | 59 | 185 | 0.0 | 0.0 | 0.00 | 0.00 | 0.00 | 77 | 1022.4 |
| 20260906012704 | 59 | 185 | 0.0 | 0.0 | 0.00 | 0.00 | 0.00 | 76 | 1022.5 |
| 20260906012205 | 59 | 185 | 0.0 | 0.0 | 0.00 | 0.00 | 0.00 | 76 | 1022.5 |
| 20260906011704 | 60 | 185 | 0.0 | 0.0 | 0.00 | 0.00 | 0.00 | 76 | 1022.4 |
| 20260906011204 | 60 | 185 | 0.0 | 0.0 | 0.00 | 0.00 | 0.00 | 76 | 1022.4 |
| 20260906010704 | 60 | 185 | 0.0 | 0.0 | 0.00 | 0.00 | 0.00 | 76 | 1022.4 |
| 20260906010204 | 60 | 185 | 0.0 | 0.0 | 0.00 | 0.00 | 0.00 | 76 | 1022.6 |
| 20260906005704 | 60 | 185 | 0.0 | 0.9 | 0.00 | 0.00 | 0.00 | 75 | 1022.5 |
| 20260906005204 | 60 | 185 | 0.0 | 0.9 | 0.00 | 0.00 | 0.00 | 76 | 1022.5 |
| 20260906004704 | 60 | 185 | 0.0 | 0.9 | 0.00 | 0.00 | 0.00 | 76 | 1022.6 |
| 20260906004204 | 60 | 185 | 0.0 | 0.9 | 0.00 | 0.00 | 0.00 | 76 | 1022.5 |
| 20260906003704 | 60 | 185 | 0.0 | 0.9 | 0.00 | 0.00 | 0.00 | 76 | 1022.6 |
| 20260906003205 | 60 | 185 | 0.0 | 0.9 | 0.00 | 0.00 | 0.00 | 76 | 1022.6 |
| 20260906002704 | 60 | 185 | 0.0 | 0.9 | 0.00 | 0.00 | 0.00 | 76 | 1022.6 |
| 20260906002204 | 60 | 185 | 0.0 | 0.9 | 0.00 | 0.00 | 0.00 | 76 | 1022.7 |
| 20260906001204 | 60 | 185 | 0.0 | 0.9 | 0.00 | 0.00 | 0.00 | 76 | 1022.8 |
| 20260906000704 | 60 | 185 | 0.0 | 0.9 | 0.00 | 0.00 | 0.00 | 76 | 1022.9 |
| 20260905235205 | 60 | 185 | 0.0 | 0.0 | 0.00 | 0.00 | 0.00 | 76 | 1022.6 |
| 20260905234204 | 60 | 185 | 0.0 | 0.0 | 0.00 | 0.00 | 0.00 | 75 | 1022.8 |
| 20260905233206 | 60 | 185 | 0.0 | 0.0 | 0.00 | 0.00 | 0.00 | 75 | 1022.7 |
| 20260905232205 | 61 | 185 | 0.0 | 0.9 | 0.00 | 0.00 | 0.00 | 74 | 1022.7 |
| 20260905231204 | 61 | 185 | 0.0 | 1.7 | 0.00 | 0.00 | 0.00 | 74 | 1022.7 |
| 20260905230705 | 61 | 185 | 0.0 | 1.7 | 0.00 | 0.00 | 0.00 | 74 | 1022.7 |
| 20260905230205 | 61 | 185 | 0.0 | 0.9 | 0.00 | 0.00 | 0.00 | 74 | 1022.7 |
| 20260905224703 | 61 | 185 | 0.0 | 0.9 | 0.00 | 0.00 | 0.00 | 74 | 1022.9 |
| 20260905224204 | 62 | 185 | 0.0 | 0.9 | 0.00 | 0.00 | 0.00 | 74 | 1022.8 |
| 20260905223704 | 62 | 185 | 0.0 | 0.9 | 0.00 | 0.00 | 0.00 | 73 | 1022.8 |
| 20260905223204 | 62 | 185 | 0.0 | 0.9 | 0.00 | 0.00 | 0.00 | 73 | 1022.7 |
| 20260905222704 | 62 | 185 | 0.0 | 0.9 | 0.00 | 0.00 | 0.00 | 73 | 1022.6 |
| 20260905222205 | 62 | 185 | 0.0 | 2.6 | 0.00 | 0.00 | 0.00 | 73 | 1022.6 |
| 20260905221205 | 62 | 185 | 0.0 | 2.6 | 0.00 | 0.00 | 0.00 | 73 | 1022.7 |
| 20260905220714 | 62 | 185 | 0.9 | 1.7 | 0.00 | 0.00 | 0.00 | 73 | 1022.7 |
| 20260905220205 | 62 | 183 | 0.0 | 1.7 | 0.00 | 0.00 | 0.00 | 73 | 1022.8 |
| 20260905215205 | 62 | 183 | 0.0 | 0.9 | 0.00 | 0.00 | 0.00 | 72 | 1022.7 |
| 20260905214709 | 62 | 183 | 0.0 | 0.9 | 0.00 | 0.00 | 0.00 | 72 | 1022.6 |
| 20260905214204 | 62 | 183 | 0.0 | 0.0 | 0.00 | 0.00 | 0.00 | 71 | 1022.5 |
| 20260905212704 | 63 | 183 | 0.0 | 1.7 | 0.00 | 0.00 | 0.00 | 71 | 1022.4 |
| 20260905212209 | 63 | 183 | 0.0 | 1.7 | 0.00 | 0.00 | 0.00 | 71 | 1022.4 |
| 20260905211704 | 63 | 183 | 0.0 | 0.9 | 0.00 | 0.00 | 0.00 | 71 | 1022.5 |
| 20260905211233 | 63 | 183 | 0.0 | 0.9 | 0.00 | 0.00 | 0.00 | 70 | 1022.4 |
| 20260905210204 | 63 | 183 | 0.0 | 3.5 | 0.00 | 0.00 | 0.00 | 70 | 1022.5 |
| 20260905205704 | 63 | 183 | 0.0 | 3.5 | 0.00 | 0.00 | 0.00 | 69 | 1022.5 |
| 20260905205205 | 64 | 183 | 0.9 | 1.7 | 0.00 | 0.00 | 0.00 | 69 | 1022.5 |
| 20260905204704 | 64 | 189 | 0.0 | 1.7 | 0.00 | 0.00 | 0.00 | 69 | 1022.4 |
| 20260905204205 | 64 | 189 | 0.0 | 1.7 | 0.00 | 0.00 | 0.00 | 68 | 1022.3 |
| 20260905203704 | 64 | 189 | 0.0 | 2.6 | 0.00 | 0.00 | 0.00 | 68 | 1022.3 |